Air Resources Laboratory banner image
Air Resources Laboratory web site National Oceanic and Atmospheric Administration (NOAA)

co roundup


Office: BOU

ASUS45 KBOU 170310
RWRCO

WEATHER ROUNDUP FOR COLORADO
NATIONAL WEATHER SERVICE DENVER/BOULDER CO
900 PM MDT TUE AUG 16 2022

NOTE: "FAIR" INDICATES FEW OR NO CLOUDS BELOW 12000 FEET WITH NO
SIGNIFICANT WEATHER AND/OR OBSTRUCTIONS TO VISIBILITY.

COZ001>005-013-030-031-170400-
...NORTHWEST COLORADO...

CITY           SKY/WX    TMP DP  RH WIND       PRES   REMARKS
CRAIG          FAIR      68  46  45 NE9       30.26R
HAYDEN         FAIR      65  47  52 SE16      30.30R
MEEKER         FAIR      67  49  52 E8        30.26R
RANGELY        FAIR      70  52  52 CALM      30.16R
RABBIT EARS PA FAIR      45  45 100 SE3       30.57R
STEAMBOAT SPGS FAIR      63  46  54 E8        30.32R
WALDEN         FAIR      55  50  82 SW3       30.44R
$$

COZ006>008-011-170400-
...WEST CENTRAL VALLEYS...

CITY           SKY/WX    TMP DP  RH WIND       PRES   REMARKS
GRAND JUNCTION MOCLDY    75  56  51 SE9       30.11S
MONTROSE       FAIR      66  60  81 E6        30.22R
EAGLE          CLOUDY    61  56  83 W5        30.35R
RIFLE          FAIR      68  54  60 E12       30.21R
DELTA          FAIR      75  55  49 E6        30.19R
NUCLA          NOT AVBL
$$

COZ017>023-064>068-170400-
...SOUTHWEST COLORADO...

CITY           SKY/WX    TMP DP  RH WIND       PRES   REMARKS
DURANGO        FAIR      70  52  52 SE12G21   30.24R
CORTEZ         FAIR      71  57  61 S7        30.15F
PAGOSA SPRINGS CLOUDY    61  55  81 S3        30.36S
TELLURIDE      FAIR      55  54  94 CALM      30.46R
WOLF CREEK PAS MOCLDY    45  45 100 SW10G20   30.69R
$$

COZ009-010-012-014-032>034-037-058>063-170400-
...CENTRAL COLORADO...

CITY           SKY/WX    TMP DP  RH WIND       PRES   REMARKS
ASPEN          CLOUDY    57  56  96 CALM      30.38S
BUENA VISTA    LGT RAIN  55  51  88 CALM      30.47R
COPPER MTN     DRIZZLE   45  39  81 E17       30.68S
BERTHOUD PASS  LGT RAIN  34  34 100 SE16      30.70S VSB 1/2 WCI  23
DAKOTA HILL    CLOUDY    39  39 100 S6        30.63R
COTTONWOOD PAS LGT RAIN  50  45  81 E8        30.57R
GUNNISON       LGT RAIN  58  56  93 N8        30.38R
GRANBY         FAIR      52  29  41 CALM      30.45S
KREMMLING      FAIR      55  52  88 CALM      30.41R
LEADVILLE      LGT RAIN  47  46  97 SE6       30.56R
MONARCH PASS   FOG       41  41 100 E23G35    30.74S VSB<1/4
SALIDA         CLOUDY    57  53  89 CALM      30.52R
SUNLIGHT       CLOUDY    45  45 100 E9G20     30.58R FOG
WILKERSON PASS CLOUDY    41  37  87 N10       30.67
$$

COZ069>075-170400-
...SAN LUIS VALLEY/SANGRE DE CRISTO MOUNTAINS...

CITY           SKY/WX    TMP DP  RH WIND       PRES   REMARKS
ALAMOSA        LGT RAIN  59  58  96 CALM      30.37R
DEL NORTE      RAIN      56  54  93 CALM      30.42R
LA VETA PASS   LGT RAIN  46  46 100 E5        30.55R VSB 1/4
SAGUACHE         N/A     59  54  82 E6        30.40R
$$

COZ035-036-038>040-170400-
...NORTHERN COLORADO FRONT RANGE...

CITY           SKY/WX    TMP DP  RH WIND       PRES   REMARKS
DENVER INTL AP MOCLDY    68  53  58 SW10      30.25R
AURORA         MOCLDY    65  54  69 SW6       30.28R
WATKINS        NOT AVBL
ERIE           FAIR      67  53  61 SW5       30.24S
BOULDER        FAIR      68  45  42 SW10G17   30.25R
CENTENNIAL     MOCLDY    64  53  67 SW9       30.29S
BROOMFIELD     NOT AVBL
FORT COLLINS   FAIR      69  59  70 S3        30.23R
LONGMONT       FAIR      70  54  57 CALM      30.25R
$$

COZ041-046-047-076>085-087-088-170400-
...PIKES PEAK/PALMER DIVIDE AND SOUTHERN FOOTHILLS...

CITY           SKY/WX    TMP DP  RH WIND       PRES   REMARKS
COLO. SPRINGS  CLOUDY    63  53  70 NW9       30.34R
A. F. ACADEMY  CLOUDY    59  52  78 N7        30.34R
SCHRIEVER AFB  NOT AVBL
CHEYENNE MTN   NOT AVBL
ELLICOTT       LGT RAIN  61  57  87 SW5       30.34R
FALCON         CLOUDY    61  49  63 NW13      30.37R
FORT CARSON      N/A     59  53  81 W7        30.30R
LIMON          CLOUDY    67  62  84 CALM      30.26R
MONUMENT HILL  CLOUDY    57  50  77 SW9       30.40R
CANON CITY     CLOUDY    63  61  94 W6        30.32R
WALSENBURG     NOT AVBL
TRINIDAD       NOT AVBL
$$

COZ042>045-048>051-090-091-170400-
...NORTHEAST COLORADO...

CITY           SKY/WX    TMP DP  RH WIND       PRES   REMARKS
GREELEY        FAIR      69  59  70 CALM      30.22R
AKRON          FAIR      66  62  87 E10       30.23R
BURLINGTON     FAIR      68  59  73 E5        30.20R
WRAY           NOT AVBL
YUMA           FAIR      63  36  36 E5        30.21R
STERLING       FAIR      70  61  73 E8        30.18R
HOLYOKE        FAIR      64  57  77 SE8       30.21R
FORT MORGAN    FAIR      72  63  73 MISG      30.20R
$$

COZ086-089-092>099-170400-
...SOUTHEAST COLORADO...

CITY           SKY/WX    TMP DP  RH WIND       PRES   REMARKS
PUEBLO         CLOUDY    65  61  87 CALM      30.26R
LA JUNTA       LGT RAIN  66  64  93 SW7       30.20R
LAMAR          HVY RAIN  63  61  93 SW9G23    30.18R FOG
SPRINGFIELD      N/A     64  62  93 N7        30.24R
$$